Regional Weather Roundup
Issued by NWS

Home | Current Version | Previous Version | Text Only | Print | Product List | Glossary Off
Versions: 1 2 3 4 5 6 7 8 9 10 11 12 13 14 15 16 17 18 19 20 21 22 23 24 25 26 27 28 29 30 31 32 33 34 35 36 37 38 39 40 41 42 43 44 45 46 47 48 49 50

000
ASUS43 KDTX 010410
RWRMI
MICHIGAN HOURLY REGIONAL WEATHER ROUNDUP
NATIONAL WEATHER SERVICE DETROIT/PONTIAC MI
1200 AM EDT MON SEP 01 2014

NOTE: "FAIR" INDICATES FEW OR NO CLOUDS BELOW 12,000 FEET WITH NO
SIGNIFICANT WEATHER AND/OR OBSTRUCTION TO VISIBILITY.

MIZ047>049-052>055-059>063-066>070-074>076-081>083-010500-
SOUTHEAST LOWER MICHIGAN

CITY           SKY/WX    TMP DP  RH WIND       PRES   REMARKS
ADRIAN         CLEAR     71  67  87 CALM      29.94F
ALMA           FOG       62  61  96 CALM      29.90F VSB 1/2
BAD AXE        PTCLDY    67  67 100 CALM      29.92F FOG
CARO           CLEAR     69  67  93 SE3       29.90F
DETROIT CITY   PTCLDY    77  68  73 S3        29.92F
DETROIT        PTCLDY    73  69  87 S6        29.93F
FLINT          MOCLDY    72  66  81 S6        29.91F
GROSSE ILE     PTCLDY    75  72  88 S10       29.92S
HILLSDALE      CLEAR     69  69 100 S3        29.95S FOG
HOWELL         CLEAR     68  67  96 CALM      29.92F

CITY           SKY/WX    TMP DP  RH WIND       PRES   REMARKS
JACKSON        CLEAR     69  66  90 CALM      29.93F
LAMBERTVILLE   CLEAR     73  68  83 S5        29.94S
LANSING        CLEAR     66  63  90 CALM      29.92F
LAPEER         FAIR      66  64  94 CALM      29.92F
MASON          CLEAR     67  65  93 S5        29.92F
MONROE         PTCLDY    73  70  88 S5        29.91F
MT. CLEMENS    PTCLDY    71  68  88 E2        29.91F
PONTIAC        PTCLDY    72  67  84 CALM      29.92F
PORT HOPE        N/A     68  65  90 SE6       29.91F
PORT HURON     MOCLDY    68  68 100 CALM      29.93F FOG
TRI CITIES     CLEAR     72  67  84 SW5       29.90F
TROY           MOCLDY    76  68  75 CALM      29.94F
SAGINAW HB     CLEAR     68  68 100 CALM      29.89S
$$
MIZ043>046-050>051-056>058-064>065-071>073-077>080-010500-
SOUTHWEST LOWER MICHIGAN

CITY           SKY/WX    TMP DP  RH WIND       PRES   REMARKS
BATTLE CREEK   CLEAR     71  67  87 SE5       29.92F
BENTON HARBOR  CLEAR     70  66  87 S3        29.90R
BIG RAPIDS     CLEAR     63  63 100 SE3       29.89S
COLDWATER      CLEAR     69  68  96 CALM      29.93S FOG
FREMONT        FAIR      67  65  93 SE5       29.87S
HOLLAND        CLEAR     69  66  90 SE6       29.90R
GRAND RAPIDS   CLEAR     67  67 100 S6        29.90S
IONIA          FAIR      64  64  98 S5        29.89F FOG
KALAMAZOO      CLEAR     70  66  87 S5        29.92S
LUDINGTON      MOCLDY    69  67  92 SE5       29.86R
MARSHALL       CLEAR     65  65 100 CALM      29.91F FOG
MOUNT PLEASANT CLEAR     62  61  97 CALM      29.89S
MUSKEGON       CLEAR     71  65  81 SE8       29.88R
SOUTH HAVEN    CLEAR     72  69  91 CALM      29.90R
$$
MIZ016>042-010500-
NORTHERN LOWER MICHIGAN

CITY           SKY/WX    TMP DP  RH WIND       PRES   REMARKS
ALPENA         CLEAR     60  59  96 SE5       29.90F
BEAVER ISLAND  CLEAR     62  61  97 SE5       29.84S
BELLAIRE       CLEAR     59  58  96 CALM      29.85S FOG
CADILLAC       CLEAR     61  61 100 CALM      29.88F
CHARLEVOIX     CLEAR     64  63  99 SE6       29.87F
FRANKFORT      CLEAR     64  61  89 CALM      29.83S
GAYLORD        CLEAR     61  60  97 SE7       29.89F
GRAYLING       FOG       59  59 100 CALM      29.90F VSB 3/4
HARBOR SPRINGS CLEAR     63  61  94 NE7       29.85F
HOUGHTON LAKE  CLEAR     62  61  96 E5        29.91F
MANISTEE       CLEAR     64  63  94 SE3       29.85S
OSCODA         CLEAR     65  65  98 E3        29.90F
PELLSTON       PTCLDY    58  57  97 CALM      29.86F FOG
ROGERS CITY    CLEAR     61  61 100 SE9       29.90F
TRAVERSE CITY  CLEAR     66  62  87 CALM      29.83F
$$
MIZ007>008-015-010500-
EASTERN UPPER MICHIGAN

CITY           SKY/WX    TMP DP  RH WIND       PRES   REMARKS
KINROSS        CLEAR     59  59 100 SE7       29.86S
MACKINAC ISLAN CLEAR     60  60 100 SE10G16   29.85F
NEWBERRY       PTCLDY    58  57  99 S5        29.83F
S. S. MARIE    CLEAR     60  58  92 E3        29.86S
MUNISING         N/A     65  60  84 S8G16     29.79R
$$
MIZ004>006-011>014-085-010500-
CENTRAL UPPER MICHIGAN

CITY           SKY/WX    TMP DP  RH WIND       PRES   REMARKS
MANISTIQUE     PTCLDY    62  61  98 S6        29.83R
ESCANABA       PTCLDY    64  59  82 S6        29.82S
MENOMINEE      MOCLDY    66  63  88 S6        29.81R
SAWYER-GWINN   CLOUDY    62  60  95 S15       29.81S
$$
MIZ001>003-009>011-084-010500-
WESTERN UPPER MICHIGAN

CITY           SKY/WX    TMP DP  RH WIND       PRES   REMARKS
IRON MOUNTAIN  FOG       63  63 100 SE6       29.81R VSB 1
HOUGHTON       MOCLDY    62  58  86 SE8       29.72F
COPPER HARBOR    N/A     63  59  87 SW12G23   29.70F
$$

ABBREVIATIONS USED IN REMARKS
   TC - TEMPERATURE IN CELSIUS
  WCI - WIND CHILL INDEX
   HX - HEAT INDEX
  VSB - VISIBILITY



USA.gov is the U.S. government's official web portal to all federal, state and local government web resources and services.